This is the latest recevied weather packets stored in our database for station/object K6CQU-13. If no packets are shown the sender has not sent any weather packets the latest 10 day(s).
| Time | Temp. | Humidity | Pressure | Rain* | Wind** | Luminosity | Snow |
|---|---|---|---|---|---|---|---|
| 1778109917 | 24.44° C | 55% | 1017.1 hPa | 0 mm | - | 621 W/m² | - |
| 1778109617 | 24.44° C | 55% | 1017.1 hPa | 0 mm | - | 634 W/m² | - |
| 1778109317 | 24.44° C | 54% | 1017.2 hPa | 0 mm | - | 648 W/m² | - |
| 1778109017 | 24.44° C | 55% | 1017.2 hPa | 0 mm | - | 660 W/m² | - |
| 1778108717 | 24.44° C | 55% | 1017.4 hPa | 0 mm | - | 674 W/m² | - |
| 1778108416 | 24.44° C | 55% | 1017.5 hPa | 0 mm | - | 684 W/m² | - |
| 1778108116 | 24.44° C | 53% | 1017.4 hPa | 0 mm | - | 697 W/m² | - |
| 1778107817 | 25° C | 53% | 1017.6 hPa | 0 mm | - | 710 W/m² | - |
| 1778107517 | 25° C | 54% | 1017.6 hPa | 0 mm | - | 722 W/m² | - |
| 1778107217 | 24.44° C | 54% | 1017.7 hPa | 0 mm | - | 733 W/m² | - |
| 1778106917 | 24.44° C | 54% | 1017.8 hPa | 0 mm | - | 743 W/m² | - |
| 1778106616 | 24.44° C | 55% | 1017.8 hPa | 0 mm | - | 753 W/m² | - |
| 1778106316 | 23.89° C | 56% | 1018 hPa | 0 mm | - | 764 W/m² | - |
| 1778106016 | 23.89° C | 55% | 1018 hPa | 0 mm | - | 774 W/m² | - |
| 1778105716 | 23.89° C | 55% | 1018 hPa | 0 mm | - | 780 W/m² | - |
| 1778105416 | 23.89° C | 54% | 1018.1 hPa | 0 mm | - | 794 W/m² | - |
| 1778105116 | 23.89° C | 56% | 1018.3 hPa | 0 mm | - | 801 W/m² | - |
| 1778104816 | 23.89° C | 55% | 1018.3 hPa | 0 mm | - | 812 W/m² | - |
| 1778104517 | 23.89° C | 55% | 1018.5 hPa | 0 mm | - | 818 W/m² | - |
| 1778104216 | 23.89° C | 54% | 1018.6 hPa | 0 mm | - | 830 W/m² | - |
| 1778103916 | 23.89° C | 55% | 1018.5 hPa | 0 mm | - | 834 W/m² | - |
| 1778103616 | 23.89° C | 55% | 1018.5 hPa | 0 mm | - | 845 W/m² | - |
| 1778103317 | 23.33° C | 56% | 1018.7 hPa | 0 mm | - | 852 W/m² | - |
| 1778103017 | 23.33° C | 57% | 1018.7 hPa | 0 mm | - | 871 W/m² | - |
| 1778102716 | 23.33° C | 57% | 1018.8 hPa | 0 mm | - | 869 W/m² | - |
* Rain latest hour (hover to see other rain measurements)
** Current wind speed in m/s (hover to see current wind gust speed)